Weather History for Grand Forks, ND

Change the Weather History Date:

Sunday, February 9, 2014

  Actual Average Record
Temperature  
Mean Temperature -10 °F 10 °F  
Max Temperature -2 °F 20 °F 40 °F (1976)
Min Temperature -19 °F 0 °F -32 °F (1994)
Degree Days  
Heating Degree Days 75 55  
Month to date heating degree days 615 505  
Since 1 July heating degree days 6707 6171  
Cooling Degree Days 0 0  
Month to date cooling degree days 0 0  
Year to date cooling degree days 0 0  
Moisture  
Dew Point -17 °F    
Average Humidity 70    
Maximum Humidity 81    
Minimum Humidity 58    
Precipitation  
Precipitation 0.00 in 0.02 in 0.47 in (2009)
Month to date precipitation T 0.13  
Year to date precipitation 0.69 0.68  
Snow  
Snow 0.00 in 0.20 in - ()
Month to date snowfall T 2.0  
Since 1 July snowfall 40.3 32.6  
Snow Depth 10.00 in    
Sea Level Pressure  
Sea Level Pressure 30.41 in    
Wind  
Wind Speed 8 mph (WNW)    
Max Wind Speed 14 mph    
Max Gust Speed 15 mph    
Visibility 10 miles    
Events      
T = Trace of Precipitation, MM = Missing Value Source: NWS Daily Summary

Daily Weather History Graph

Daily Weather History Graph

Search for Another Location

Airport:

Trip Planner

Search our weather history database for the weather conditions in past years. The results will help you decide how hot, cold, wet, or windy it might be!

Date:

Astronomy

Feb. 09, 2014 Rise Set
Actual Time 7:44 AM CST 5:41 PM CST
Civil Twilight 7:12 AM CST 6:14 PM CST
Nautical Twilight 6:35 AM CST 6:51 PM CST
Astronomical Twilight 5:59 AM CST 7:27 PM CST
Moon 1:14 PM CST (2/9) 3:58 AM CST (2/9)
Length of Visible Light 11h 02m
Length of Day
9h 57m
Waxing Gibbous, 77% of the Moon is Illuminated
Feb 9
Waxing Gibbous
Feb 14
Full
Feb 22
Last Quarter
Mar 1
New
Mar 8
First Quarter

Hourly Weather History & Observations

Time (CST) Temp. Windchill Dew Point Humidity Pressure Visibility Wind Dir Wind Speed Gust Speed Precip Events Conditions
12:53 AM -14.1 °F -28.3 °F -18.0 °F 82% 30.37 in 10.0 mi WNW 5.8 mph - N/A   Partly Cloudy
1:53 AM -15.0 °F -33.7 °F -18.0 °F 86% 30.36 in 10.0 mi West 9.2 mph - N/A   Clear
2:53 AM -14.1 °F -32.6 °F -18.9 °F 79% 30.37 in 10.0 mi West 9.2 mph - N/A   Clear
3:53 AM -11.9 °F -29.9 °F -17.0 °F 78% 30.36 in 10.0 mi West 9.2 mph - N/A   Clear
4:53 AM -9.9 °F -26.3 °F -16.1 °F 74% 30.36 in 10.0 mi WNW 8.1 mph - N/A   Partly Cloudy
5:24 AM -11.2 °F -24.8 °F -18.4 °F 70% 30.28 in 10.0 mi WNW 5.8 mph - N/A   Mostly Cloudy
5:53 AM -9.9 °F -26.3 °F -17.0 °F 71% 30.37 in 10.0 mi WNW 8.1 mph - N/A   Overcast
6:34 AM -13.0 °F -22.7 °F -18.4 °F 77% 30.28 in 10.0 mi WNW 3.5 mph - N/A   Partly Cloudy
6:53 AM -14.1 °F -23.9 °F -20.0 °F 75% 30.37 in 10.0 mi WNW 3.5 mph - N/A   Scattered Clouds
7:53 AM -17.0 °F -31.7 °F -22.0 °F 78% 30.40 in 10.0 mi WNW 5.8 mph - N/A   Scattered Clouds
8:53 AM -14.1 °F -28.3 °F -20.9 °F 71% 30.40 in 10.0 mi WNW 5.8 mph - N/A   Partly Cloudy
9:53 AM -9.9 °F -26.3 °F -18.0 °F 68% 30.42 in 10.0 mi NW 8.1 mph - N/A   Partly Cloudy
10:53 AM -8.0 °F -27.1 °F -16.1 °F 68% 30.44 in 10.0 mi NW 11.5 mph - N/A   Clear
11:53 AM -6.0 °F -23.6 °F -15.0 °F 65% 30.45 in 10.0 mi NW 10.4 mph - N/A   Clear
12:53 PM -4.0 °F -21.2 °F -13.0 °F 65% 30.44 in 10.0 mi NW 10.4 mph - N/A   Partly Cloudy
1:53 PM -2.9 °F -19.8 °F -11.9 °F 65% 30.43 in 10.0 mi NW 10.4 mph - N/A   Clear
2:53 PM -2.0 °F -17.7 °F -11.9 °F 63% 30.43 in 10.0 mi NW 9.2 mph - N/A   Partly Cloudy
3:53 PM -2.0 °F -19.6 °F -11.9 °F 63% 30.43 in 10.0 mi NW 11.5 mph - N/A   Partly Cloudy
4:53 PM -2.9 °F -18.8 °F -13.0 °F 62% 30.44 in 10.0 mi WNW 9.2 mph - N/A   Clear
5:53 PM -7.1 °F -21.4 °F -15.0 °F 68% 30.46 in 10.0 mi NW 6.9 mph - N/A   Clear
6:53 PM -11.0 °F -24.6 °F -17.0 °F 75% 30.48 in 10.0 mi WNW 5.8 mph - N/A   Clear
7:53 PM -9.9 °F -27.5 °F -18.0 °F 68% 30.48 in 10.0 mi NW 9.2 mph - N/A   Clear
8:53 PM -11.9 °F -28.7 °F -18.0 °F 74% 30.48 in 10.0 mi NW 8.1 mph - N/A   Clear
9:53 PM -15.0 °F -29.3 °F -20.9 °F 75% 30.48 in 10.0 mi NW 5.8 mph - N/A   Clear
10:53 PM -17.0 °F -29.7 °F -22.0 °F 78% 30.50 in 10.0 mi WNW 4.6 mph - N/A   Clear
11:53 PM -17.0 °F -31.7 °F -23.1 °F 74% 30.49 in 10.0 mi WNW 5.8 mph - N/A   Clear